Location: Oroua River
(40.4333°S, 175.4333°E)
Time: 14:16:14
(UTC+00:00)

Cosmos 2056 Rocket - Pass Details

Date: 03 February 2023
Orbit: 742 x 799 km, 74.0° (Epoch: 30 March)

Event Time Altitude Azimuth Distance (km) Brightness Sun altitude
Rises 14:20:43 0° 201° (SSW) 3,317 7.3 -27.7°
Reaches altitude 10° 14:23:08 10° 202° (SSW) 2,388 6.5 -27.5°
Enters shadow 14:28:17 76° 246° (WSW) 834 3.5 -27.0°
